sat.trackr.live / text

‹ back to catalog

CONNECTA IOT-7

NORAD 62715 · 2025-009DL

PAYLOAD ACTIVE UNKNOWN

§ Identity

Operator
Country
TURK
Launch date
2025-01-14
Launch site
AFWTR
Launch vehicle
Mass (kg)
RCS (m²)

External: N2YO · Heavens-Above · Gunter

§ Orbital elements

Epoch: 2026-09-22T17:40:20.216640Z

Period
96.36 min
Inclination
97.7015°
Eccentricity
0.0001041
Mean motion
14.94392089 rev/d
Perigee alt
583.5 km
Apogee alt
585.0 km
Semi-major
6,962.4 km
B*
9.3695e-5
RAAN
342.6799°
Arg perigee
158.5077°
Mean anomaly
201.6188°
Rev number
9,191

§ Raw data

CONNECTA IOT-71 62715U 25009DL  26265.73634510  .00000952  00000+0  93695-4 0  99982 62715  97.7015 342.6799 0001041 158.5077 201.6188 14.94392089 91916

JSON: /api/v1/satellites/62715 · /tle

For live sub-satellite position, see the globe view (requires WebGL).

§ Visibility from observer

Set your observer location to see the next 7 days of passes ≥ 10°. The values pass through the URL so the page stays shareable.

No JS? Fill the form by hand. The geolocation button needs JavaScript.

§ Radio — SatNOGS DB

ModeDescriptionDownlinkUplink
GMSK Mode S - GMSK 4k8 AX.25 TLM 2.240 GHz
GMSK Mode U - GMSK 4k8 AX.25 TLM 401.530 MHz

2 transmitters · refreshed weekly from db.satnogs.org